EW7837 Weather Reports


time (UTC)temp
F
wind
direction
speed
knots
gust
knots
rain 1hr
in
rain 24hr
in
rain mn
in
humidity
%
barometer
mb
20260902230051 78 232 0.0 0.0 0.00 0.00 0.00 64 1011.2
20260902224600 79 255 0.0 0.0 0.00 0.00 0.00 65 1011.4
20260902223019 79 262 0.0 0.0 0.00 0.00 0.00 65 1011.6
20260902221523 78 244 0.0 0.0 0.00 0.00 0.00 66 1011.7
20260902220016 78 221 0.0 0.0 0.00 0.00 0.00 67 1012.1
20260902214525 78 262 0.0 0.0 0.00 0.00 0.00 66 1012.1
20260902213024 78 265 0.0 0.0 0.00 0.00 0.00 67 1012.1
20260902211514 78 250 0.0 0.0 0.00 0.00 0.00 68 1011.9
20260902210017 78 258 0.0 0.0 0.00 0.00 0.00 68 1011.9
20260902204512 78 215 0.0 0.0 0.00 0.00 0.00 68 1011.9
20260902203012 78 252 0.0 0.0 0.00 0.00 0.00 68 1012.0
20260902201516 78 269 0.0 0.0 0.00 0.00 0.00 67 1012.3
20260902200010 78 225 0.0 0.0 0.00 0.00 0.00 67 1012.4
20260902194506 79 265 0.0 0.0 0.00 0.00 0.00 67 1012.6
20260902193002 80 251 0.0 0.0 0.00 0.00 0.00 65 1012.4
20260902191559 79 246 0.0 0.0 0.00 0.00 0.00 68 1012.6
20260902190033 79 245 0.0 0.0 0.00 0.00 0.00 68 1012.7
20260902184537 79 252 0.0 0.0 0.00 0.00 0.00 68 1013.2
20260902183110 79 255 0.0 0.0 0.00 0.00 0.00 68 1013.1
20260902181554 79 262 0.0 0.0 0.00 0.00 0.00 68 1013.2
20260902180018 79 256 0.0 0.0 0.00 0.00 0.00 68 1012.8
20260902174513 79 264 0.0 0.0 0.00 0.00 0.00 69 1013.1
20260902173006 79 267 0.0 0.0 0.00 0.00 0.00 68 1013.1
20260902171503 78 246 0.0 0.0 0.00 0.00 0.00 66 1013.1
20260902170059 78 246 0.0 0.0 0.00 0.00 0.00 69 1012.6
20260902164554 76 246 0.0 0.0 0.00 0.00 0.00 71 1012.7
20260902163101 76 246 0.0 0.0 0.00 0.00 0.00 73 1013.1
20260902161544 74 246 0.0 0.0 0.00 0.00 0.00 77 1013.1
20260902160041 73 246 0.0 0.0 0.00 0.00 0.00 80 1013.1
20260902154537 72 246 0.0 0.0 0.00 0.00 0.00 82 1012.7
20260902153031 70 246 0.0 0.0 0.00 0.00 0.00 84 1013.1
20260902151527 69 246 0.0 0.0 0.00 0.00 0.00 87 1013.1
20260902150023 67 246 0.0 0.0 0.00 0.00 0.00 90 1013.1
20260902144521 65 246 0.0 0.0 0.00 0.00 0.00 92 1012.7
20260902143051 64 246 0.0 0.0 0.00 0.00 0.00 92 1012.7
20260902141547 63 246 0.0 0.0 0.00 0.00 0.00 91 1013.2
20260902140014 62 246 0.0 0.0 0.00 0.00 0.00 91 1012.9
20260902134513 62 246 0.0 0.0 0.00 0.00 0.00 90 1012.7
20260902133009 62 246 0.0 0.0 0.00 0.00 0.00 90 1012.1
20260902131509 62 246 0.0 0.0 0.00 0.00 0.00 90 1012.2
20260902130004 62 246 0.0 0.0 0.00 0.00 0.00 90 1012.2
20260902124504 62 246 0.0 0.0 0.00 0.00 0.00 90 1012.1
20260902123139 62 246 0.0 0.0 0.00 0.00 0.00 89 1012.1
20260902121601 63 246 0.0 0.0 0.00 0.00 0.00 89 1011.7
20260902120108 63 246 0.0 0.0 0.00 0.00 0.00 88 1012.1
20260902114556 64 246 0.0 0.0 0.00 0.00 0.00 88 1012.1
20260902113053 64 246 0.0 0.0 0.00 0.00 0.00 88 1012.2
20260902111535 65 246 0.0 0.0 0.00 0.00 0.00 88 1012.2
20260902110022 65 246 0.0 0.0 0.00 0.00 0.00 88 1012.1
20260902104520 65 246 0.0 0.0 0.00 0.00 0.00 87 1012.1
20260902103017 65 246 0.0 0.0 0.00 0.00 0.00 87 1012.6
20260902101516 65 246 0.0 0.0 0.00 0.00 0.00 86 1012.6
20260902100013 66 246 0.0 0.0 0.00 0.00 0.00 86 1012.6
20260902094511 66 246 0.0 0.0 0.00 0.00 0.00 86 1012.3
20260902093011 66 246 0.0 0.0 0.00 0.00 0.00 86 1012.4
20260902091510 67 246 0.0 0.0 0.00 0.00 0.00 86 1012.8
20260902090010 67 246 0.0 0.0 0.00 0.00 0.00 86 1012.9
20260902084505 67 246 0.0 0.0 0.00 0.00 0.00 86 1013.0
20260902083110 67 246 0.0 0.0 0.00 0.00 0.00 86 1013.0
20260902081552 67 246 0.0 0.0 0.00 0.00 0.00 86 1012.7
20260902080002 67 246 0.0 0.0 0.00 0.00 0.00 86 1012.6
20260902074645 66 246 0.0 0.0 0.00 0.00 0.00 86 1013.0
20260902073031 66 246 0.0 0.0 0.00 0.00 0.00 87 1012.8
20260902071602 67 246 0.0 0.0 0.00 0.00 0.00 86 1012.6
20260902070100 66 246 0.0 0.0 0.00 0.00 0.00 87 1012.6
20260902064529 66 246 0.0 0.0 0.00 0.00 0.00 87 1012.2
20260902063039 66 246 0.0 0.0 0.00 0.00 0.00 86 1012.2
20260902061524 66 246 0.0 0.0 0.00 0.00 0.00 85 1012.2
20260902060022 67 246 0.0 0.0 0.00 0.00 0.00 85 1012.1
20260902054525 67 246 0.0 0.0 0.00 0.00 0.00 84 1012.3
20260902053018 68 246 0.0 0.0 0.00 0.00 0.00 83 1012.5
20260902051513 68 246 0.0 0.0 0.00 0.00 0.00 82 1012.2
20260902050033 68 246 0.0 0.0 0.00 0.00 0.00 81 1012.0
20260902044508 69 246 0.0 0.0 0.00 0.00 0.00 80 1011.8
20260902043015 70 246 0.0 0.0 0.00 0.00 0.00 79 1011.6
20260902041600 70 246 0.0 0.0 0.00 0.00 0.00 79 1011.5
20260902040058 71 246 0.0 0.0 0.00 0.00 0.00 79 1011.1
20260902034600 72 246 0.0 0.0 0.00 0.00 0.00 79 1010.9
20260902033054 72 246 0.0 0.0 0.00 0.00 0.00 78 1010.6
20260902031550 72 246 0.0 0.0 0.00 0.00 0.00 77 1010.5
20260902030047 73 246 0.0 0.0 0.00 0.00 0.00 77 1010.5
20260902024555 73 246 0.0 0.0 0.00 0.00 0.00 76 1010.4
20260902023047 74 246 0.0 0.0 0.00 0.00 0.00 75 1010.3
20260902021555 75 246 0.0 0.0 0.00 0.00 0.00 72 1010.2
20260902020047 76 246 0.0 0.0 0.00 0.00 0.00 71 1010.2
20260902014544 78 246 0.0 0.0 0.00 0.00 0.00 69 1010.2
20260902013044 79 246 0.0 0.0 0.00 0.00 0.00 67 1010.1
20260902011541 79 246 0.0 0.0 0.00 0.00 0.00 67 1010.2
20260902010040 80 247 0.0 0.0 0.00 0.00 0.00 67 1010.2
20260902004539 80 252 0.0 0.0 0.00 0.00 0.00 67 1010.3
20260902003040 80 257 0.0 0.0 0.00 0.00 0.00 66 1010.3
20260902001537 81 256 0.0 0.0 0.00 0.00 0.00 66 1010.4
20260902000038 81 255 0.0 0.0 0.00 0.00 0.00 66 1010.5
20260901234535 81 254 0.0 0.0 0.00 0.00 0.00 65 1010.5
20260901233035 80 236 0.0 0.0 0.00 0.00 0.00 65 1010.5
20260901231533 81 259 0.0 0.0 0.00 0.00 0.00 63 1010.6